Regional Weather Roundup
Issued by NWS Tiyan, Guam

Home | Current Version | Previous Version | Text Only | Print | Product List | Glossary On
Versions: 1 2 3 4 5 6 7 8 9 10 11 12 13 14 15 16 17 18 19 20 21 22 23 24 25 26 27 28 29 30 31 32 33 34 35 36 37 38 39 40 41 42 43 44 45 46 47 48 49 50
000
ASGM40 PGUM 250912
RWRGUM
WEATHER ROUNDUP FOR THE MARIANAS
NATIONAL WEATHER SERVICE TIYAN GU
700 PM CHST FRI JUL 25 2014

GUZ001>004-251000-
MARIANA ISLANDS-

CITY           SKY/WX    TMP DP  RH WIND       PRES   REMARKS
GUAM AIRPORT   MOCLDY    77  75  94 N3        29.84R
ANDERSEN AFB   LGT RAIN  75  75 100 N1        29.84R
ROTA AIRPORT   RAIN      77  75  94 VRB5      29.88R
TINIAN AP      LGT RAIN  77  75  94 SE13      29.79S
SAIPAN AP      LGT RAIN  79  77  94 SE14G21   29.82R

$$



USA.gov is the U.S. government's official web portal to all federal, state and local government web resources and services.